Regional Weather Roundup
Issued by NWS

Home | Current Version | Previous Version | Text Only | Print | Product List | Glossary On
Versions: 1 2 3 4 5 6 7 8 9 10 11 12 13 14 15 16 17 18 19 20 21 22 23 24 25 26 27 28 29 30 31 32 33 34 35 36 37 38 39 40 41 42 43 44 45 46 47 48 49 50
000
ASUS43 KTOP 161208
RWRKS

WEATHER ROUNDUP FOR KANSAS
NATIONAL WEATHER SERVICE GOODLAND KS
700 AM CDT TUE SEP 16 2014

NOTE:  "FAIR" INDICATES FEW OR NO CLOUDS BELOW 12,000 FEET WITH NO
SIGNIFICANT WEATHER AND/OR OBSTRUCTIONS TO VISIBILITY.

KSZ001>006-013>018-027>032-041>047-161300-
NORTHWEST KANSAS

CITY           SKY/WX    TMP DP  RH WIND       PRES   REMARKS
GOODLAND       CLOUDY    58  54  86 S12       30.18F
6HR MIN TEMP:  50; 6HR MAX TEMP:  58;

HAYS           CLOUDY    52  45  76 E8        30.23S
HILL CITY      CLOUDY    50  46  86 SE5       30.22F
6HR MIN TEMP:  43; 6HR MAX TEMP:  50;

RUSSELL        CLOUDY    51  49  92 E6        30.22S
6HR MIN TEMP:  47; 6HR MAX TEMP:  51;

$$

KSZ061>065-074>080-084>089-161300-
SOUTHWEST KANSAS

CITY           SKY/WX    TMP DP  RH WIND       PRES   REMARKS
DODGE CITY     CLOUDY    56  53  90 E6        30.22F
6HR MIN TEMP:  51; 6HR MAX TEMP:  61;

ELKHART          N/A     58  55  90 S3          N/A
GARDEN CITY    CLOUDY    58  56  93 S5        30.21F
6HR MIN TEMP:  58; 6HR MAX TEMP:  60;

GREAT BEND     CLOUDY    54  46  76 E7        30.23S
LIBERAL        CLOUDY    61  54  77 SE6       30.23F
PRATT          MOCLDY    57  50  77 E6        30.22S
$$

KSZ066>073-081>083-090>101-161300-
SOUTHEAST KANSAS

CITY           SKY/WX    TMP DP  RH WIND       PRES   REMARKS
CHANUTE        CLOUDY    58  50  75 NE12      30.21S
6HR MIN TEMP:  58; 6HR MAX TEMP:  63;

COFFEYVILLE    CLOUDY    60  55  83 NE9       30.19S
6HR MIN TEMP:  60; 6HR MAX TEMP:  67;

HUTCHINSON     CLOUDY    56  49  77 NE7       30.23R
6HR MIN TEMP:  56; 6HR MAX TEMP:  62;

MEDICINE LODGE   N/A     62  54  74 NE6       30.20S
NEWTON         CLOUDY    54  46  76 E8        30.24S
PARSONS        CLOUDY    60  53  77 VRB5      30.21S
6HR MIN TEMP:  60; 6HR MAX TEMP:  67;

WICHITA INTL   CLOUDY    60  51  72 NE9       30.21R
6HR MIN TEMP:  60; 6HR MAX TEMP:  64;

WICHITA JABRA  CLOUDY    57  51  80 NE9       30.21S
6HR MIN TEMP:  57; 6HR MAX TEMP:  61;

WICHITA MCCONL CLOUDY    59  53  80 E8        30.21S
WINFIELD       CLOUDY    61  55  81 NE12      30.21R
6HR MIN TEMP:  61; 6HR MAX TEMP:  67;

$$

KSZ007>012-019>026-033>040-048>060-102>105-161300-
NORTHEAST KANSAS

CITY           SKY/WX    TMP DP  RH WIND       PRES   REMARKS
CONCORDIA      CLEAR     44  44 100 SE5       30.24F
6HR MIN TEMP:  43; 6HR MAX TEMP:  48;

EMPORIA        CLEAR     48  47  96 CALM      30.24S
6HR MIN TEMP:  48; 6HR MAX TEMP:  55;

LAWRENCE       CLEAR     43  42  97 CALM      30.25R
6HR MIN TEMP:  43; 6HR MAX TEMP:  51;

MANHATTAN      CLEAR     44  43  96 CALM      30.25R
6HR MIN TEMP:  44; 6HR MAX TEMP:  52;

MARYSVILLE     CLEAR     41  41 100 CALM      30.25S
OLATHE IND     CLEAR     46  45  96 CALM      30.24S
6HR MIN TEMP:  45; 6HR MAX TEMP:  50;

OLATHE EXE     CLEAR     48  47  96 NE5       30.23S
6HR MIN TEMP:  48; 6HR MAX TEMP:  54;

SALINA         CLEAR     50  46  86 CALM      30.25S
6HR MIN TEMP:  49; 6HR MAX TEMP:  57;

TOPEKA BILLARD CLEAR     45  44  97 CALM      30.25S
6HR MIN TEMP:  45; 6HR MAX TEMP:  53;

TOPEKA FORBES  CLEAR     45  44  97 CALM      30.24R
6HR MIN TEMP:  44; 6HR MAX TEMP:  52;

$$


USA.gov is the U.S. government's official web portal to all federal, state and local government web resources and services.